TimeCST,TemperatureF,Dew PointF,Humidity,Sea Level PressureIn,VisibilityMPH,Wind Direction,Wind SpeedMPH,Gust SpeedMPH,PrecipitationIn,Events,Conditions,WindDirDegrees,DateUTC
12:15 AM,48.2,35.6,62,30.18,10.0,Calm,Calm,-,N/A,,Overcast,0,2013-01-09 06:15:00
12:35 AM,48.2,37.4,66,30.18,10.0,Calm,Calm,-,N/A,,Overcast,0,2013-01-09 06:35:00
12:55 AM,48.2,39.2,71,30.19,10.0,Calm,Calm,-,N/A,,Overcast,0,2013-01-09 06:55:00
1:15 AM,48.2,41.0,76,30.20,10.0,Calm,Calm,-,N/A,,Overcast,0,2013-01-09 07:15:00
1:35 AM,50.0,41.0,71,30.21,10.0,Calm,Calm,-,N/A,,Overcast,0,2013-01-09 07:35:00
1:55 AM,48.2,41.0,76,30.22,7.0,Calm,Calm,-,N/A,Rain,Light Rain,0,2013-01-09 07:55:00
2:15 AM,48.2,42.8,82,30.22,7.0,Calm,Calm,-,N/A,Rain,Light Rain,0,2013-01-09 08:15:00
2:35 AM,48.2,44.6,87,30.22,10.0,Calm,Calm,-,N/A,,Overcast,0,2013-01-09 08:35:00
2:55 AM,48.2,44.6,87,30.23,10.0,Calm,Calm,-,N/A,,Overcast,0,2013-01-09 08:55:00
3:15 AM,48.2,44.6,87,30.24,10.0,Calm,Calm,-,N/A,,Overcast,0,2013-01-09 09:15:00
3:35 AM,48.2,44.6,87,30.24,10.0,Calm,Calm,-,N/A,,Overcast,0,2013-01-09 09:35:00
3:55 AM,44.6,44.6,100,30.25,10.0,Calm,Calm,-,N/A,,Mostly Cloudy,0,2013-01-09 09:55:00
4:15 AM,44.6,44.6,100,30.26,10.0,Calm,Calm,-,N/A,,Clear,0,2013-01-09 10:15:00
4:35 AM,42.8,42.8,100,30.26,10.0,Calm,Calm,-,N/A,,Clear,0,2013-01-09 10:35:00
4:55 AM,44.6,44.6,100,30.27,10.0,Calm,Calm,-,N/A,,Clear,0,2013-01-09 10:55:00
5:15 AM,46.4,44.6,93,30.27,10.0,Calm,Calm,-,N/A,,Clear,0,2013-01-09 11:15:00
5:35 AM,41.0,41.0,100,30.28,7.0,Calm,Calm,-,N/A,,Clear,0,2013-01-09 11:35:00
6:15 AM,39.2,39.2,100,30.29,7.0,Calm,Calm,-,N/A,,Clear,0,2013-01-09 12:15:00
6:35 AM,42.8,42.8,100,30.31,9.0,Calm,Calm,-,N/A,,Clear,0,2013-01-09 12:35:00
6:55 AM,41.0,41.0,100,30.33,8.0,NNW,3.5,-,N/A,,Clear,330,2013-01-09 12:55:00
7:15 AM,37.4,37.4,100,30.34,0.5,Calm,Calm,-,N/A,Fog,Fog,0,2013-01-09 13:15:00
7:35 AM,37.4,37.4,100,30.34,0.2,Calm,Calm,-,N/A,Fog,Fog,0,2013-01-09 13:35:00
7:55 AM,37.4,37.4,100,30.35,0.2,Calm,Calm,-,N/A,Fog,Fog,0,2013-01-09 13:55:00
8:15 AM,35.6,35.6,100,30.37,0.8,Calm,Calm,-,N/A,,Mist,0,2013-01-09 14:15:00
8:35 AM,39.2,39.2,100,30.38,5.0,Calm,Calm,-,N/A,,Clear,0,2013-01-09 14:35:00
8:55 AM,41.0,41.0,100,30.38,10.0,Calm,Calm,-,N/A,,Clear,0,2013-01-09 14:55:00
9:15 AM,41.0,41.0,100,30.39,6.0,Calm,Calm,-,N/A,,Clear,0,2013-01-09 15:15:00
9:35 AM,42.8,41.0,93,30.39,10.0,Calm,Calm,-,N/A,,Clear,0,2013-01-09 15:35:00
9:55 AM,44.6,41.0,87,30.40,10.0,Calm,Calm,-,N/A,,Clear,0,2013-01-09 15:55:00
10:15 AM,44.6,41.0,87,30.40,10.0,Calm,Calm,-,N/A,,Clear,0,2013-01-09 16:15:00
10:35 AM,46.4,39.2,76,30.40,10.0,Calm,Calm,-,N/A,,Clear,0,2013-01-09 16:35:00
10:55 AM,48.2,39.2,71,30.41,10.0,Calm,Calm,-,N/A,,Clear,0,2013-01-09 16:55:00
11:15 AM,48.2,39.2,71,30.40,10.0,Calm,Calm,-,N/A,,Clear,0,2013-01-09 17:15:00
11:55 AM,50.0,39.2,66,30.39,10.0,Calm,Calm,-,N/A,,Clear,0,2013-01-09 17:55:00
12:15 PM,51.8,39.2,62,30.38,10.0,Calm,Calm,-,N/A,,Clear,0,2013-01-09 18:15:00
12:35 PM,53.6,39.2,58,30.38,10.0,WNW,3.5,-,N/A,,Clear,290,2013-01-09 18:35:00
12:55 PM,53.6,41.0,62,30.38,10.0,NW,4.6,-,N/A,,Clear,320,2013-01-09 18:55:00
1:15 PM,55.4,39.2,54,30.38,10.0,Calm,Calm,-,N/A,,Clear,0,2013-01-09 19:15:00
1:35 PM,55.4,37.4,51,30.38,10.0,Calm,Calm,-,N/A,,Clear,0,2013-01-09 19:35:00
1:55 PM,57.2,32.0,38,30.38,10.0,NNW,4.6,-,N/A,,Clear,330,2013-01-09 19:55:00
2:15 PM,57.2,32.0,38,30.38,10.0,Calm,Calm,-,N/A,,Clear,0,2013-01-09 20:15:00
2:35 PM,57.2,32.0,38,30.38,10.0,Calm,Calm,-,N/A,,Clear,0,2013-01-09 20:35:00
2:55 PM,57.2,32.0,38,30.39,10.0,North,5.8,-,N/A,,Clear,10,2013-01-09 20:55:00
3:15 PM,57.2,32.0,38,30.40,10.0,Calm,Calm,-,N/A,,Clear,0,2013-01-09 21:15:00
3:35 PM,55.4,32.0,41,30.40,10.0,North,5.8,-,N/A,,Clear,360,2013-01-09 21:35:00
3:55 PM,55.4,32.0,41,30.40,10.0,Calm,Calm,-,N/A,,Clear,0,2013-01-09 21:55:00
4:15 PM,55.4,28.4,36,30.41,10.0,Calm,Calm,-,N/A,,Clear,0,2013-01-09 22:15:00
4:35 PM,53.6,28.4,38,30.40,10.0,Calm,Calm,-,N/A,,Clear,0,2013-01-09 22:35:00
4:55 PM,53.6,28.4,38,30.40,10.0,Calm,Calm,-,N/A,,Clear,0,2013-01-09 22:55:00
5:15 PM,51.8,30.2,44,30.41,10.0,Calm,Calm,-,N/A,,Clear,0,2013-01-09 23:15:00
5:35 PM,50.0,32.0,50,30.42,10.0,Calm,Calm,-,N/A,,Scattered Clouds,0,2013-01-09 23:35:00
5:55 PM,50.0,32.0,50,30.43,10.0,ENE,3.5,-,N/A,,Partly Cloudy,60,2013-01-09 23:55:00
6:15 PM,48.2,32.0,54,30.43,10.0,Calm,Calm,-,N/A,,Partly Cloudy,0,2013-01-10 00:15:00
7:15 PM,48.2,26.6,43,30.44,10.0,North,3.5,-,N/A,,Clear,10,2013-01-10 01:15:00
7:35 PM,46.4,28.4,50,30.44,10.0,Calm,Calm,-,N/A,,Clear,0,2013-01-10 01:35:00
7:55 PM,48.2,28.4,46,30.44,10.0,NNE,3.5,-,N/A,,Clear,20,2013-01-10 01:55:00
8:35 PM,46.4,28.4,50,30.44,10.0,Calm,Calm,-,N/A,,Clear,0,2013-01-10 02:35:00
8:55 PM,46.4,30.2,53,30.46,10.0,Calm,Calm,-,N/A,,Clear,0,2013-01-10 02:55:00
9:15 PM,46.4,30.2,53,30.46,10.0,Calm,Calm,-,N/A,,Clear,0,2013-01-10 03:15:00
9:35 PM,42.8,32.0,66,30.45,10.0,Calm,Calm,-,N/A,,Clear,0,2013-01-10 03:35:00
10:15 PM,46.4,28.4,50,30.45,10.0,Calm,Calm,-,N/A,,Clear,0,2013-01-10 04:15:00
10:35 PM,46.4,28.4,50,30.44,10.0,Calm,Calm,-,N/A,,Clear,0,2013-01-10 04:35:00
10:55 PM,46.4,30.2,53,30.44,10.0,ESE,4.6,-,N/A,,Clear,110,2013-01-10 04:55:00
11:15 PM,46.4,28.4,50,30.43,10.0,ESE,3.5,-,N/A,,Clear,120,2013-01-10 05:15:00
11:35 PM,46.4,28.4,50,30.43,10.0,SE,3.5,-,N/A,,Clear,130,2013-01-10 05:35:00
11:55 PM,46.4,28.4,50,30.43,10.0,ESE,6.9,-,N/A,,Clear,120,2013-01-10 05:55:00